Regional Weather Roundup
Issued by NWS

Home | Current Version | Previous Version | Graphics & Text | Print | Product List | Glossary On
Versions: 1 2 3 4 5 6 7 8 9 10 11 12 13 14 15 16 17 18 19 20 21 22 23 24 25 26 27 28 29 30 31 32 33 34 35 36 37 38 39 40 41 42 43 44 45 46 47 48 49 50
102
ASUS43 KBIS 250210
RWRND
NORTH DAKOTA REGIONAL WEATHER ROUNDUP
NATIONAL WEATHER SERVICE EASTERN NORTH DAKOTA/GRAND FORKS ND
900 PM CDT WED MAY 24 2017

  NOTE: "FAIR" INDICATES FEW OR NO CLOUDS BELOW 12,000 FEET WITH NO
  SIGNIFICANT WEATHER AND/OR OBSTRUCTIONS TO VISIBILITY.

NDZ001>003-009>011-017-250300-
...NORTHWEST NORTH DAKOTA...

CITY           SKY/WX    TMP DP  RH WIND       PRES   REMARKS
WILLISTON      LGT RAIN  59  55  87 NW9       29.37R FOG
MINOT          FAIR      67  37  33 SE18G25   29.38R
MINOT AFB      MOCLDY    66  37  34 S17G25    29.37F
$$

NDZ018>021-031>035-040>046-250300-
...SOUTHWEST NORTH DAKOTA...

CITY           SKY/WX    TMP DP  RH WIND       PRES   REMARKS
BISMARCK       FAIR      66  39  37 S23       29.41F
DICKINSON      MOCLDY    64  36  35 SE15      29.33S
GARRISON         N/A     63  39  41 S12       29.40R
HETTINGER      FAIR      66  38  35 SE16G26   29.33S
$$

NDZ004>008-012>016-024-026-027-054-250300-
...NORTHEAST NORTH DAKOTA...

CITY           SKY/WX    TMP DP  RH WIND       PRES   REMARKS
GRAND FORKS    FAIR      63  41  44 S15       29.59S
GRAND FORKS AF FAIR      60  41  50 S16       29.59S
DEVILS LAKE    FAIR      58  44  60 SE20G26   29.53S
$$

NDZ022-023-025-028>030-036>039-047>053-250300-
...SOUTHEAST NORTH DAKOTA...

CITY           SKY/WX    TMP DP  RH WIND       PRES   REMARKS
JAMESTOWN      FAIR      58  45  62 SE15      29.53S
FARGO          MOCLDY    60  43  53 S10       29.63S
WAHPETON       CLOUDY    55  41  58 SE10      29.65S
$$




USA.gov is the U.S. government's official web portal to all federal, state and local government web resources and services.